Location: Potomac Astrometric Observatory
(39.0475°N, 77.2064°W)
Time: 04:21:38
(UTC-04:00)

Envisat - Pass Details

Date: 24 March 2019
Orbit: 764 x 766 km, 98.2° (Epoch: 20 April)

Event Time Altitude Azimuth Distance (km) Brightness Sun altitude
Rises 20:01:54 0° 175° (S) 3,217 6.1 -8.0°
Reaches altitude 10° 20:04:14 10° 179° (S) 2,295 5.4 -8.5°
Maximum altitude 20:09:13 60° 259° (W) 873 3.7 -9.4°
Drops below altitude 10° 20:14:15 10° 340° (NNW) 2,310 5.9 -10.4°
Sets 20:16:36 0° 344° (NNW) 3,240 6.6 -10.8°
